Location: Lombard
(41.8800°N, 88.0080°W)
Time: 18:36:20
(UTC-05:00)

Transit 2A - Pass Details

Date: 11 February 2023
Orbit: 591 x 964 km, 66.7° (Epoch: 29 March)

Event Time Altitude Azimuth Distance (km) Brightness Sun altitude
Rises 15:52:33 0° 239° (WSW) 3,025 11.1 13.8°
Reaches altitude 10° 15:55:00 10° 250° (WSW) 2,170 10.5 13.4°
Maximum altitude 15:59:23 31° 312° (NW) 1,309 7.6 12.7°
Drops below altitude 10° 16:04:13 10° 14° (NNE) 2,403 8.2 11.9°
Sets 16:07:05 0° 25° (NNE) 3,407 8.9 11.5°
